Year,Month,Day,Hour,Minute,Value (Times are PST for temperature in C)
2018,07,06,00,00,14.50
2018,07,06,00,01,14.50
2018,07,06,00,02,14.40
2018,07,06,00,03,14.40
2018,07,06,00,04,14.40
2018,07,06,00,05,14.40
2018,07,06,00,06,14.40
2018,07,06,00,07,14.40
2018,07,06,00,08,14.40
2018,07,06,00,09,14.40
2018,07,06,00,10,14.40
2018,07,06,00,11,14.40
2018,07,06,00,12,14.40
2018,07,06,00,13,14.40
2018,07,06,00,14,14.40
2018,07,06,00,15,14.40
2018,07,06,00,16,14.40
2018,07,06,00,17,14.40
2018,07,06,00,18,14.30
2018,07,06,00,19,14.30
2018,07,06,00,20,14.30
2018,07,06,00,21,14.30
2018,07,06,00,22,14.30
2018,07,06,00,23,14.30
2018,07,06,00,24,14.30
2018,07,06,00,25,14.30
2018,07,06,00,26,14.30
2018,07,06,00,27,14.30
2018,07,06,00,28,14.30
2018,07,06,00,29,14.30
2018,07,06,00,30,14.30
2018,07,06,00,31,14.30
2018,07,06,00,32,14.30
2018,07,06,00,33,14.30
2018,07,06,00,34,14.50
2018,07,06,00,35,14.60
2018,07,06,00,36,14.60
2018,07,06,00,37,14.60
2018,07,06,00,38,14.60
2018,07,06,00,39,14.60
2018,07,06,00,40,14.60
2018,07,06,00,41,14.60
2018,07,06,00,42,14.60
2018,07,06,00,43,14.50
2018,07,06,00,44,14.50
2018,07,06,00,45,14.50
2018,07,06,00,46,14.50
2018,07,06,00,47,14.50
2018,07,06,00,48,14.50
2018,07,06,00,49,14.60
2018,07,06,00,50,14.60
2018,07,06,00,51,14.60
2018,07,06,00,52,14.60
2018,07,06,00,53,14.60
2018,07,06,00,54,14.60
2018,07,06,00,55,14.60
2018,07,06,00,56,14.60
2018,07,06,00,57,14.60
2018,07,06,00,58,14.70
2018,07,06,00,59,14.70
2018,07,06,01,00,14.70
2018,07,06,01,01,14.70
2018,07,06,01,02,14.70
2018,07,06,01,03,14.70
2018,07,06,01,04,14.80
2018,07,06,01,05,14.80
2018,07,06,01,06,14.80
2018,07,06,01,07,14.80
2018,07,06,01,08,14.80
2018,07,06,01,09,14.80
2018,07,06,01,10,14.80
2018,07,06,01,11,14.90
2018,07,06,01,12,14.90
2018,07,06,01,13,14.90
2018,07,06,01,14,14.90
2018,07,06,01,15,14.90
2018,07,06,01,16,14.90
2018,07,06,01,17,14.90
2018,07,06,01,18,14.90
2018,07,06,01,19,14.90
2018,07,06,01,20,14.90
2018,07,06,01,21,14.90
2018,07,06,01,22,14.90
2018,07,06,01,23,14.90
2018,07,06,01,24,14.90
2018,07,06,01,25,14.90
2018,07,06,01,26,14.90
2018,07,06,01,27,14.90
2018,07,06,01,28,14.90
2018,07,06,01,29,14.90
2018,07,06,01,30,14.90
2018,07,06,01,31,15.00
2018,07,06,01,32,15.00
2018,07,06,01,33,15.00
2018,07,06,01,34,15.00
2018,07,06,01,35,15.00
2018,07,06,01,36,15.00
2018,07,06,01,37,15.00
2018,07,06,01,38,15.00
2018,07,06,01,39,15.10
2018,07,06,01,40,15.10
2018,07,06,01,41,15.10
2018,07,06,01,42,15.10
2018,07,06,01,43,15.10
2018,07,06,01,44,15.10
2018,07,06,01,45,15.10
2018,07,06,01,46,15.20
2018,07,06,01,47,15.20
2018,07,06,01,48,15.20
2018,07,06,01,49,15.20
2018,07,06,01,50,15.20
2018,07,06,01,51,15.20
2018,07,06,01,52,15.20
2018,07,06,01,53,15.20
2018,07,06,01,54,15.20
2018,07,06,01,55,15.20
2018,07,06,01,56,15.20
2018,07,06,01,57,15.20
2018,07,06,01,58,15.20
2018,07,06,01,59,15.10
2018,07,06,02,00,15.20
2018,07,06,02,01,15.20
2018,07,06,02,02,15.20
2018,07,06,02,03,15.20
2018,07,06,02,04,15.20
2018,07,06,02,05,15.20
2018,07,06,02,06,15.20
2018,07,06,02,07,15.20
2018,07,06,02,08,15.20
2018,07,06,02,09,15.20
2018,07,06,02,10,15.20
2018,07,06,02,11,15.20
2018,07,06,02,12,15.20
2018,07,06,02,13,15.20
2018,07,06,02,14,15.20
2018,07,06,02,15,15.20
2018,07,06,02,16,15.20
2018,07,06,02,17,15.10
2018,07,06,02,18,15.10
2018,07,06,02,19,15.10
2018,07,06,02,20,15.10
2018,07,06,02,21,15.10
2018,07,06,02,22,15.10
2018,07,06,02,23,15.10
2018,07,06,02,24,15.00
2018,07,06,02,25,15.00
2018,07,06,02,26,15.00
2018,07,06,02,27,15.00
2018,07,06,02,28,14.90
2018,07,06,02,29,14.90
2018,07,06,02,30,14.90
2018,07,06,02,31,14.90
2018,07,06,02,32,14.90
2018,07,06,02,33,14.90
2018,07,06,02,34,14.90
2018,07,06,02,35,14.90
2018,07,06,02,36,14.90
2018,07,06,02,37,14.90
2018,07,06,02,38,14.90
2018,07,06,02,39,14.90
2018,07,06,02,40,14.90
2018,07,06,02,41,14.90
2018,07,06,02,42,14.90
2018,07,06,02,43,14.80
2018,07,06,02,44,14.80
2018,07,06,02,45,14.80
2018,07,06,02,46,14.80
2018,07,06,02,47,14.80
2018,07,06,02,48,14.80
2018,07,06,02,49,14.80
2018,07,06,02,50,14.80
2018,07,06,02,51,14.80
2018,07,06,02,52,14.80
2018,07,06,02,53,14.80
2018,07,06,02,54,14.80
2018,07,06,02,55,14.80
2018,07,06,02,56,14.80
2018,07,06,02,57,14.80
2018,07,06,02,58,14.80
2018,07,06,02,59,14.80
2018,07,06,03,00,14.80
2018,07,06,03,01,14.80
2018,07,06,03,02,14.80
2018,07,06,03,03,14.80
2018,07,06,03,04,14.80
2018,07,06,03,05,14.80
2018,07,06,03,06,14.80
2018,07,06,03,07,14.90
2018,07,06,03,08,14.90
2018,07,06,03,09,14.90
2018,07,06,03,10,14.90
2018,07,06,03,11,14.90
2018,07,06,03,12,14.90
2018,07,06,03,13,14.90
2018,07,06,03,14,14.80
2018,07,06,03,15,14.80
2018,07,06,03,16,14.80
2018,07,06,03,17,14.80
2018,07,06,03,18,14.80
2018,07,06,03,19,14.80
2018,07,06,03,20,14.70
2018,07,06,03,21,14.70
2018,07,06,03,22,14.70
2018,07,06,03,23,14.70
2018,07,06,03,24,14.70
2018,07,06,03,25,14.70
2018,07,06,03,26,14.70
2018,07,06,03,27,14.70
2018,07,06,03,28,14.70
2018,07,06,03,29,14.70
2018,07,06,03,30,14.70
2018,07,06,03,31,14.70
2018,07,06,03,32,14.70
2018,07,06,03,33,14.70
2018,07,06,03,34,14.70
2018,07,06,03,35,14.70
2018,07,06,03,36,14.70
2018,07,06,03,37,14.70
2018,07,06,03,38,14.70
2018,07,06,03,39,14.70
2018,07,06,03,40,14.70
2018,07,06,03,41,14.60
2018,07,06,03,42,14.60
2018,07,06,03,43,14.60
2018,07,06,03,44,14.60
2018,07,06,03,45,14.60
2018,07,06,03,46,14.60
2018,07,06,03,47,14.60
2018,07,06,03,48,14.60
2018,07,06,03,49,14.60
2018,07,06,03,50,14.60
2018,07,06,03,51,14.60
2018,07,06,03,52,14.60
2018,07,06,03,53,14.60
2018,07,06,03,54,14.60
2018,07,06,03,55,14.60
2018,07,06,03,56,14.60
2018,07,06,03,57,14.60
2018,07,06,03,58,14.60
2018,07,06,03,59,14.60
2018,07,06,04,00,14.60
2018,07,06,04,01,14.60
2018,07,06,04,02,14.60
2018,07,06,04,03,14.60
2018,07,06,04,04,14.60
2018,07,06,04,05,14.60
2018,07,06,04,06,14.60
2018,07,06,04,07,14.60
2018,07,06,04,08,14.60
2018,07,06,04,09,14.60
2018,07,06,04,10,14.50
2018,07,06,04,11,14.50
2018,07,06,04,12,14.50
2018,07,06,04,13,14.40
2018,07,06,04,14,14.40
2018,07,06,04,15,14.40
2018,07,06,04,16,14.30
2018,07,06,04,17,14.30
2018,07,06,04,18,14.30
2018,07,06,04,19,14.20
2018,07,06,04,20,14.20
2018,07,06,04,21,14.20
2018,07,06,04,22,14.20
2018,07,06,04,23,14.10
2018,07,06,04,24,14.10
2018,07,06,04,25,14.10
2018,07,06,04,26,14.10
2018,07,06,04,27,14.10
2018,07,06,04,28,14.10
2018,07,06,04,29,14.10
2018,07,06,04,30,14.00
2018,07,06,04,31,14.00
2018,07,06,04,32,14.00
2018,07,06,04,33,14.00
2018,07,06,04,34,14.00
2018,07,06,04,35,14.00
2018,07,06,04,36,13.90
2018,07,06,04,37,13.90
2018,07,06,04,38,13.90
2018,07,06,04,39,13.90
2018,07,06,04,40,13.90
2018,07,06,04,41,13.90
2018,07,06,04,42,13.90
2018,07,06,04,43,13.90
2018,07,06,04,44,13.90
2018,07,06,04,45,13.90
2018,07,06,04,46,13.90
2018,07,06,04,47,13.90
2018,07,06,04,48,13.90
2018,07,06,04,49,13.90
2018,07,06,04,50,13.90
2018,07,06,04,51,13.90
2018,07,06,04,52,13.80
2018,07,06,04,53,13.80
2018,07,06,04,54,13.80
2018,07,06,04,55,13.80
2018,07,06,04,56,13.80
2018,07,06,04,57,13.80
2018,07,06,04,58,13.80
2018,07,06,04,59,13.70
2018,07,06,05,00,13.70
2018,07,06,05,01,13.70
2018,07,06,05,02,13.70
2018,07,06,05,03,13.60
2018,07,06,05,04,13.60
2018,07,06,05,05,13.60
2018,07,06,05,06,13.60
2018,07,06,05,07,13.60
2018,07,06,05,08,13.60
2018,07,06,05,09,13.60
2018,07,06,05,10,13.50
2018,07,06,05,11,13.50
2018,07,06,05,12,13.50
2018,07,06,05,13,13.50
2018,07,06,05,14,13.50
2018,07,06,05,15,13.50
2018,07,06,05,16,13.50
2018,07,06,05,17,13.40
2018,07,06,05,18,13.40
2018,07,06,05,19,13.40
2018,07,06,05,20,13.40
2018,07,06,05,21,13.40
2018,07,06,05,22,13.40
2018,07,06,05,23,13.40
2018,07,06,05,24,13.40
2018,07,06,05,25,13.40
2018,07,06,05,26,13.50
2018,07,06,05,27,13.50
2018,07,06,05,28,13.50
2018,07,06,05,29,13.50
2018,07,06,05,30,13.50
2018,07,06,05,31,13.50
2018,07,06,05,32,13.50
2018,07,06,05,33,13.60
2018,07,06,05,34,13.60
2018,07,06,05,35,13.60
2018,07,06,05,36,13.60
2018,07,06,05,37,13.60
2018,07,06,05,38,13.60
2018,07,06,05,39,13.60
2018,07,06,05,40,13.60
2018,07,06,05,41,13.60
2018,07,06,05,42,13.60
2018,07,06,05,43,13.60
2018,07,06,05,44,13.60
2018,07,06,05,45,13.60
2018,07,06,05,46,13.60
2018,07,06,05,47,13.60
2018,07,06,05,48,13.60
2018,07,06,05,49,13.60
2018,07,06,05,50,13.60
2018,07,06,05,51,13.60
2018,07,06,05,52,13.60
2018,07,06,05,53,13.60
2018,07,06,05,54,13.60
2018,07,06,05,55,13.60
2018,07,06,05,56,13.60
2018,07,06,05,57,13.60
2018,07,06,05,58,13.60
2018,07,06,05,59,13.60
2018,07,06,06,00,13.60
2018,07,06,06,01,13.60
2018,07,06,06,02,13.60
2018,07,06,06,03,13.60
2018,07,06,06,04,13.60
2018,07,06,06,05,13.60
2018,07,06,06,06,13.60
2018,07,06,06,07,13.60
2018,07,06,06,08,13.60
2018,07,06,06,09,13.60
2018,07,06,06,10,13.60
2018,07,06,06,11,13.60
2018,07,06,06,12,13.60
2018,07,06,06,13,13.60
2018,07,06,06,14,13.60
2018,07,06,06,15,13.60
2018,07,06,06,16,13.60
2018,07,06,06,17,13.60
2018,07,06,06,18,13.60
2018,07,06,06,19,13.60
2018,07,06,06,20,13.60
2018,07,06,06,21,13.70
2018,07,06,06,22,13.70
2018,07,06,06,23,13.70
2018,07,06,06,24,13.70
2018,07,06,06,25,13.70
2018,07,06,06,26,13.70
2018,07,06,06,27,13.70
2018,07,06,06,28,13.70
2018,07,06,06,29,13.70
2018,07,06,06,30,13.70
2018,07,06,06,31,13.70
2018,07,06,06,32,13.70
2018,07,06,06,33,13.70
2018,07,06,06,34,13.70
2018,07,06,06,35,13.70
2018,07,06,06,36,13.70
2018,07,06,06,37,13.70
2018,07,06,06,38,13.70
2018,07,06,06,39,13.70
2018,07,06,06,40,13.70
2018,07,06,06,41,13.70
2018,07,06,06,42,13.70
2018,07,06,06,43,13.70
2018,07,06,06,44,13.70
2018,07,06,06,45,13.70
2018,07,06,06,46,13.70
2018,07,06,06,47,13.70
2018,07,06,06,48,13.70
2018,07,06,06,49,13.70
2018,07,06,06,50,13.70
2018,07,06,06,51,13.70
2018,07,06,06,52,13.70
2018,07,06,06,53,13.70
2018,07,06,06,54,13.70
2018,07,06,06,55,13.70
2018,07,06,06,56,13.70
2018,07,06,06,57,13.70
2018,07,06,06,58,13.70
2018,07,06,06,59,13.70
2018,07,06,07,00,13.80
2018,07,06,07,01,13.80
2018,07,06,07,02,13.80
2018,07,06,07,03,13.80
2018,07,06,07,04,13.80
2018,07,06,07,05,13.80
2018,07,06,07,06,13.80
2018,07,06,07,07,13.80
2018,07,06,07,08,13.80
2018,07,06,07,09,13.80
2018,07,06,07,10,13.80
2018,07,06,07,11,13.80
2018,07,06,07,12,13.80
2018,07,06,07,13,13.80
2018,07,06,07,14,13.80
2018,07,06,07,15,13.80
2018,07,06,07,16,13.90
2018,07,06,07,17,13.90
2018,07,06,07,18,13.90
2018,07,06,07,19,13.90
2018,07,06,07,20,13.90
2018,07,06,07,21,13.90
2018,07,06,07,22,14.00
2018,07,06,07,23,14.00
2018,07,06,07,24,14.00
2018,07,06,07,25,14.00
2018,07,06,07,26,14.10
2018,07,06,07,27,14.10
2018,07,06,07,28,14.10
2018,07,06,07,29,14.10
2018,07,06,07,30,14.10
2018,07,06,07,31,14.10
2018,07,06,07,32,14.10
2018,07,06,07,33,14.20
2018,07,06,07,34,14.20
2018,07,06,07,35,14.20
2018,07,06,07,36,14.20
2018,07,06,07,37,14.20
2018,07,06,07,38,14.30
2018,07,06,07,39,14.30
2018,07,06,07,40,14.30
2018,07,06,07,41,14.30
2018,07,06,07,42,14.30
2018,07,06,07,43,14.40
2018,07,06,07,44,14.40
2018,07,06,07,45,14.40
2018,07,06,07,46,14.50
2018,07,06,07,47,14.50
2018,07,06,07,48,14.60
2018,07,06,07,49,14.60
2018,07,06,07,50,14.60
2018,07,06,07,51,14.70
2018,07,06,07,52,14.70
2018,07,06,07,53,14.70
2018,07,06,07,54,14.80
2018,07,06,07,55,14.80
2018,07,06,07,56,14.80
2018,07,06,07,57,14.80
2018,07,06,07,58,14.80
2018,07,06,07,59,14.90
2018,07,06,08,00,14.90
2018,07,06,08,01,15.00
2018,07,06,08,02,15.00
2018,07,06,08,03,15.00
2018,07,06,08,04,15.00
2018,07,06,08,05,15.10
2018,07,06,08,06,15.10
2018,07,06,08,07,15.20
2018,07,06,08,08,15.20
2018,07,06,08,09,15.30
2018,07,06,08,10,15.30
2018,07,06,08,11,15.30
2018,07,06,08,12,15.40
2018,07,06,08,13,15.40
2018,07,06,08,14,15.50
2018,07,06,08,15,15.50
2018,07,06,08,16,15.60
2018,07,06,08,17,15.60
2018,07,06,08,18,15.60
2018,07,06,08,19,15.70
2018,07,06,08,20,15.70
2018,07,06,08,21,15.70
2018,07,06,08,22,15.80
2018,07,06,08,23,15.80
2018,07,06,08,24,15.90
2018,07,06,08,25,15.90
2018,07,06,08,26,16.00
2018,07,06,08,27,16.00
2018,07,06,08,28,16.00
2018,07,06,08,29,16.10
2018,07,06,08,30,16.10
2018,07,06,08,31,16.10
2018,07,06,08,32,16.20
2018,07,06,08,33,16.20
2018,07,06,08,34,16.20
2018,07,06,08,35,16.20
2018,07,06,08,36,16.20
2018,07,06,08,37,16.20
2018,07,06,08,38,16.30
2018,07,06,08,39,16.30
2018,07,06,08,40,16.30
2018,07,06,08,41,16.30
2018,07,06,08,42,16.30
2018,07,06,08,43,16.40
2018,07,06,08,44,16.40
2018,07,06,08,45,16.50
2018,07,06,08,46,16.60
2018,07,06,08,47,16.60
2018,07,06,08,48,16.60
2018,07,06,08,49,16.70
2018,07,06,08,50,16.70
2018,07,06,08,51,16.70
2018,07,06,08,52,16.80
2018,07,06,08,53,16.80
2018,07,06,08,54,16.80
2018,07,06,08,55,16.80
2018,07,06,08,56,16.80
2018,07,06,08,57,16.80
2018,07,06,08,58,16.90
2018,07,06,08,59,16.90
2018,07,06,09,00,16.90
2018,07,06,09,01,16.90
2018,07,06,09,02,17.00
2018,07,06,09,03,17.00
2018,07,06,09,04,17.10
2018,07,06,09,05,17.10
2018,07,06,09,06,17.20
2018,07,06,09,07,17.20
2018,07,06,09,08,17.30
2018,07,06,09,09,17.30
2018,07,06,09,10,17.40
2018,07,06,09,11,17.40
2018,07,06,09,12,17.40
2018,07,06,09,13,17.40
2018,07,06,09,14,17.50
2018,07,06,09,15,17.50
2018,07,06,09,16,17.60
2018,07,06,09,17,17.60
2018,07,06,09,18,17.70
2018,07,06,09,19,17.80
2018,07,06,09,20,17.80
2018,07,06,09,21,17.90
2018,07,06,09,22,18.00
2018,07,06,09,23,18.00
2018,07,06,09,24,18.10
2018,07,06,09,25,18.20
2018,07,06,09,26,18.30
2018,07,06,09,27,18.40
2018,07,06,09,28,18.40
2018,07,06,09,29,18.50
2018,07,06,09,30,18.60
2018,07,06,09,31,18.60
2018,07,06,09,32,18.70
2018,07,06,09,33,18.80
2018,07,06,09,34,18.80
2018,07,06,09,35,18.90
2018,07,06,09,36,18.90
2018,07,06,09,37,18.90
2018,07,06,09,38,19.00
2018,07,06,09,39,19.00
2018,07,06,09,40,19.10
2018,07,06,09,41,19.10
2018,07,06,09,42,19.20
2018,07,06,09,43,19.20
2018,07,06,09,44,19.20
2018,07,06,09,45,19.30
2018,07,06,09,46,19.30
2018,07,06,09,47,19.30
2018,07,06,09,48,19.30
2018,07,06,09,49,19.30
2018,07,06,09,50,19.30
2018,07,06,09,51,19.30
2018,07,06,09,52,19.30
2018,07,06,09,53,19.30
2018,07,06,09,54,19.30
2018,07,06,09,55,19.30
2018,07,06,09,56,19.30
2018,07,06,09,57,19.30
2018,07,06,09,58,19.30
2018,07,06,09,59,19.30
2018,07,06,10,00,19.10
2018,07,06,10,01,19.00
2018,07,06,10,02,18.80
2018,07,06,10,03,18.70
2018,07,06,10,04,18.60
2018,07,06,10,05,18.50
2018,07,06,10,06,18.40
2018,07,06,10,07,18.40
2018,07,06,10,08,18.30
2018,07,06,10,09,18.30
2018,07,06,10,10,18.30
2018,07,06,10,11,18.30
2018,07,06,10,12,18.20
2018,07,06,10,13,18.20
2018,07,06,10,14,18.20
2018,07,06,10,15,18.20
2018,07,06,10,16,18.10
2018,07,06,10,17,18.10
2018,07,06,10,18,18.10
2018,07,06,10,19,18.10
2018,07,06,10,20,18.10
2018,07,06,10,21,18.10
2018,07,06,10,22,18.20
2018,07,06,10,23,18.20
2018,07,06,10,24,18.20
2018,07,06,10,25,18.20
2018,07,06,10,26,18.20
2018,07,06,10,27,18.20
2018,07,06,10,28,18.20
2018,07,06,10,29,18.20
2018,07,06,10,30,18.20
2018,07,06,10,31,18.20
2018,07,06,10,32,18.20
2018,07,06,10,33,18.20
2018,07,06,10,34,18.10
2018,07,06,10,35,18.10
2018,07,06,10,36,18.10
2018,07,06,10,37,18.10
2018,07,06,10,38,18.10
2018,07,06,10,39,18.10
2018,07,06,10,40,18.10
2018,07,06,10,41,18.10
2018,07,06,10,42,18.10
2018,07,06,10,43,18.10
2018,07,06,10,44,18.10
2018,07,06,10,45,18.10
2018,07,06,10,46,18.10
2018,07,06,10,47,18.10
2018,07,06,10,48,18.10
2018,07,06,10,49,18.20
2018,07,06,10,50,18.20
2018,07,06,10,51,18.30
2018,07,06,10,52,18.30
2018,07,06,10,53,18.40
2018,07,06,10,54,18.50
2018,07,06,10,55,18.60
2018,07,06,10,56,18.70
2018,07,06,10,57,18.70
2018,07,06,10,58,18.80
2018,07,06,10,59,18.80
2018,07,06,11,00,18.80
2018,07,06,11,01,18.90
2018,07,06,11,02,18.90
2018,07,06,11,03,18.90
2018,07,06,11,04,19.00
2018,07,06,11,05,19.00
2018,07,06,11,06,19.10
2018,07,06,11,07,19.10
2018,07,06,11,08,19.10
2018,07,06,11,09,19.10
2018,07,06,11,10,19.20
2018,07,06,11,11,19.20
2018,07,06,11,12,19.20
2018,07,06,11,13,19.20
2018,07,06,11,14,19.20
2018,07,06,11,15,19.20
2018,07,06,11,16,19.20
2018,07,06,11,17,19.20
2018,07,06,11,18,19.20
2018,07,06,11,19,19.20
2018,07,06,11,20,19.30
2018,07,06,11,21,19.30
2018,07,06,11,22,19.30
2018,07,06,11,23,19.30
2018,07,06,11,24,19.30
2018,07,06,11,25,19.30
2018,07,06,11,26,19.40
2018,07,06,11,27,19.40
2018,07,06,11,28,19.40
2018,07,06,11,29,19.50
2018,07,06,11,30,19.50
2018,07,06,11,31,19.60
2018,07,06,11,32,19.60
2018,07,06,11,33,19.60
2018,07,06,11,34,19.70
2018,07,06,11,35,19.70
2018,07,06,11,36,19.70
2018,07,06,11,37,19.70
2018,07,06,11,38,19.70
2018,07,06,11,39,19.80
2018,07,06,11,40,19.80
2018,07,06,11,41,19.80
2018,07,06,11,42,19.80
2018,07,06,11,43,19.80
2018,07,06,11,44,19.80
2018,07,06,11,45,19.70
2018,07,06,11,46,19.70
2018,07,06,11,47,19.60
2018,07,06,11,48,19.60
2018,07,06,11,49,19.50
2018,07,06,11,50,19.40
2018,07,06,11,51,19.30
2018,07,06,11,52,19.30
2018,07,06,11,53,19.20
2018,07,06,11,54,19.20
2018,07,06,11,55,19.20
2018,07,06,11,56,19.20
2018,07,06,11,57,19.20
2018,07,06,11,58,19.20
2018,07,06,11,59,19.20
2018,07,06,12,00,19.20
2018,07,06,12,01,19.20
2018,07,06,12,02,19.20
2018,07,06,12,03,19.20
2018,07,06,12,04,19.30
2018,07,06,12,05,19.30
2018,07,06,12,06,19.30
2018,07,06,12,07,19.30
2018,07,06,12,08,19.40
2018,07,06,12,09,19.40
2018,07,06,12,10,19.40
2018,07,06,12,11,19.50
2018,07,06,12,12,19.50
2018,07,06,12,13,19.60
2018,07,06,12,14,19.60
2018,07,06,12,15,19.70
2018,07,06,12,16,19.70
2018,07,06,12,17,19.70
2018,07,06,12,18,19.80
2018,07,06,12,19,19.80
2018,07,06,12,20,19.80
2018,07,06,12,21,19.80
2018,07,06,12,22,19.80
2018,07,06,12,23,19.80
2018,07,06,12,24,19.80
2018,07,06,12,25,19.80
2018,07,06,12,26,19.80
2018,07,06,12,27,19.80
2018,07,06,12,28,19.80
2018,07,06,12,29,19.80
2018,07,06,12,30,19.80
2018,07,06,12,31,19.90
2018,07,06,12,32,19.90
2018,07,06,12,33,19.90
2018,07,06,12,34,20.00
2018,07,06,12,35,20.10
2018,07,06,12,36,20.10
2018,07,06,12,37,20.10
2018,07,06,12,38,20.10
2018,07,06,12,39,20.10
2018,07,06,12,40,20.10
2018,07,06,12,41,20.10
2018,07,06,12,42,20.10
2018,07,06,12,43,20.10
2018,07,06,12,44,20.20
2018,07,06,12,45,20.20
2018,07,06,12,46,20.20
2018,07,06,12,47,20.30
2018,07,06,12,48,20.30
2018,07,06,12,49,20.30
2018,07,06,12,50,20.40
2018,07,06,12,51,20.40
2018,07,06,12,52,20.50
2018,07,06,12,53,20.50
2018,07,06,12,54,20.60
2018,07,06,12,55,20.60
2018,07,06,12,56,20.60
2018,07,06,12,57,20.70
2018,07,06,12,58,20.70
2018,07,06,12,59,20.70
2018,07,06,13,00,20.70
2018,07,06,13,01,20.70
2018,07,06,13,02,20.70
2018,07,06,13,03,20.70
2018,07,06,13,04,20.70
2018,07,06,13,05,20.70
2018,07,06,13,06,20.70
2018,07,06,13,07,20.70
2018,07,06,13,08,20.80
2018,07,06,13,09,20.80
2018,07,06,13,10,20.80
2018,07,06,13,11,20.90
2018,07,06,13,12,20.90
2018,07,06,13,13,20.90
2018,07,06,13,14,20.90
2018,07,06,13,15,20.90
2018,07,06,13,16,20.90
2018,07,06,13,17,21.00
2018,07,06,13,18,21.00
2018,07,06,13,19,21.00
2018,07,06,13,20,21.10
2018,07,06,13,21,21.10
2018,07,06,13,22,21.10
2018,07,06,13,23,21.10
2018,07,06,13,24,21.10
2018,07,06,13,25,21.10
2018,07,06,13,26,21.10
2018,07,06,13,27,21.20
2018,07,06,13,28,21.20
2018,07,06,13,29,21.20
2018,07,06,13,30,21.30
2018,07,06,13,31,21.30
2018,07,06,13,32,21.20
2018,07,06,13,33,21.20
2018,07,06,13,34,21.20
2018,07,06,13,35,21.20
2018,07,06,13,36,21.20
2018,07,06,13,37,21.20
2018,07,06,13,38,21.20
2018,07,06,13,39,21.20
2018,07,06,13,40,21.20
2018,07,06,13,41,21.20
2018,07,06,13,42,21.20
2018,07,06,13,43,21.20
2018,07,06,13,44,21.10
2018,07,06,13,45,21.10
2018,07,06,13,46,21.10
2018,07,06,13,47,21.10
2018,07,06,13,48,21.10
2018,07,06,13,49,21.10
2018,07,06,13,50,21.10
2018,07,06,13,51,21.10
2018,07,06,13,52,21.10
2018,07,06,13,53,21.10
2018,07,06,13,54,21.20
2018,07,06,13,55,21.20
2018,07,06,13,56,21.20
2018,07,06,13,57,21.30
2018,07,06,13,58,21.30
2018,07,06,13,59,21.30
2018,07,06,14,00,21.30
2018,07,06,14,01,21.30
2018,07,06,14,02,21.40
2018,07,06,14,03,21.40
2018,07,06,14,04,21.40
2018,07,06,14,05,21.50
2018,07,06,14,06,21.50
2018,07,06,14,07,21.50
2018,07,06,14,08,21.60
2018,07,06,14,09,21.60
2018,07,06,14,10,21.70
2018,07,06,14,11,21.70
2018,07,06,14,12,21.80
2018,07,06,14,13,21.80
2018,07,06,14,14,21.80
2018,07,06,14,15,21.80
2018,07,06,14,16,21.80
2018,07,06,14,17,21.80
2018,07,06,14,18,21.80
2018,07,06,14,19,21.80
2018,07,06,14,20,21.80
2018,07,06,14,21,21.80
2018,07,06,14,22,21.80
2018,07,06,14,23,21.70
2018,07,06,14,24,21.60
2018,07,06,14,25,21.50
2018,07,06,14,26,21.40
2018,07,06,14,27,21.30
2018,07,06,14,28,21.10
2018,07,06,14,29,20.90
2018,07,06,14,30,20.80
2018,07,06,14,31,20.60
2018,07,06,14,32,20.50
2018,07,06,14,33,20.40
2018,07,06,14,34,20.40
2018,07,06,14,35,20.30
2018,07,06,14,36,20.20
2018,07,06,14,37,20.20
2018,07,06,14,38,20.20
2018,07,06,14,39,20.20
2018,07,06,14,40,20.20
2018,07,06,14,41,20.20
2018,07,06,14,42,20.20
2018,07,06,14,43,20.20
2018,07,06,14,44,20.30
2018,07,06,14,45,20.30
2018,07,06,14,46,20.30
2018,07,06,14,47,20.30
2018,07,06,14,48,20.30
2018,07,06,14,49,20.40
2018,07,06,14,50,20.30
2018,07,06,14,51,20.30
2018,07,06,14,52,20.30
2018,07,06,14,53,20.30
2018,07,06,14,54,20.30
2018,07,06,14,55,20.30
2018,07,06,14,56,20.30
2018,07,06,14,57,20.30
2018,07,06,14,58,20.30
2018,07,06,14,59,20.30
2018,07,06,15,00,20.30
2018,07,06,15,01,20.30
2018,07,06,15,02,20.30
2018,07,06,15,03,20.40
2018,07,06,15,04,20.40
2018,07,06,15,05,20.40
2018,07,06,15,06,20.30
2018,07,06,15,07,20.30
2018,07,06,15,08,20.30
2018,07,06,15,09,20.30
2018,07,06,15,10,20.30
2018,07,06,15,11,20.40
2018,07,06,15,12,20.50
2018,07,06,15,13,20.60
2018,07,06,15,14,20.80
2018,07,06,15,15,20.90
2018,07,06,15,16,21.20
2018,07,06,15,17,21.50
2018,07,06,15,18,21.70
2018,07,06,15,19,22.00
2018,07,06,15,20,22.10
2018,07,06,15,21,22.30
2018,07,06,15,22,22.40
2018,07,06,15,23,22.50
2018,07,06,15,24,22.60
2018,07,06,15,25,22.70
2018,07,06,15,26,22.80
2018,07,06,15,27,22.80
2018,07,06,15,28,22.90
2018,07,06,15,29,22.90
2018,07,06,15,30,22.90
2018,07,06,15,31,22.90
2018,07,06,15,32,23.00
2018,07,06,15,33,23.00
2018,07,06,15,34,23.10
2018,07,06,15,35,23.10
2018,07,06,15,36,23.10
2018,07,06,15,37,23.10
2018,07,06,15,38,23.10
2018,07,06,15,39,23.10
2018,07,06,15,40,23.10
2018,07,06,15,41,23.10
2018,07,06,15,42,23.20
2018,07,06,15,43,23.20
2018,07,06,15,44,23.20
2018,07,06,15,45,23.20
2018,07,06,15,46,23.30
2018,07,06,15,47,23.30
2018,07,06,15,48,23.40
2018,07,06,15,49,23.40
2018,07,06,15,50,23.40
2018,07,06,15,51,23.40
2018,07,06,15,52,23.40
2018,07,06,15,53,23.40
2018,07,06,15,54,23.40
2018,07,06,15,55,23.30
2018,07,06,15,56,23.30
2018,07,06,15,57,23.30
2018,07,06,15,58,23.30
2018,07,06,15,59,23.30
2018,07,06,16,00,23.20
2018,07,06,16,01,23.20
2018,07,06,16,02,23.20
2018,07,06,16,03,23.20
2018,07,06,16,04,23.20
2018,07,06,16,05,23.20
2018,07,06,16,06,23.20
2018,07,06,16,07,23.20
2018,07,06,16,08,23.20
2018,07,06,16,09,23.20
2018,07,06,16,10,23.30
2018,07,06,16,11,23.20
2018,07,06,16,12,23.20
2018,07,06,16,13,23.20
2018,07,06,16,14,23.10
2018,07,06,16,15,23.10
2018,07,06,16,16,23.10
2018,07,06,16,17,23.10
2018,07,06,16,18,23.10
2018,07,06,16,19,23.00
2018,07,06,16,20,22.90
2018,07,06,16,21,22.90
2018,07,06,16,22,22.90
2018,07,06,16,23,22.90
2018,07,06,16,24,22.90
2018,07,06,16,25,22.90
2018,07,06,16,26,22.90
2018,07,06,16,27,22.90
2018,07,06,16,28,22.90
2018,07,06,16,29,22.90
2018,07,06,16,30,23.00
2018,07,06,16,31,23.00
2018,07,06,16,32,23.10
2018,07,06,16,33,23.10
2018,07,06,16,34,23.10
2018,07,06,16,35,23.10
2018,07,06,16,36,23.10
2018,07,06,16,37,23.10
2018,07,06,16,38,23.00
2018,07,06,16,39,23.00
2018,07,06,16,40,23.00
2018,07,06,16,41,22.90
2018,07,06,16,42,22.90
2018,07,06,16,43,22.90
2018,07,06,16,44,22.90
2018,07,06,16,45,23.00
2018,07,06,16,46,23.00
2018,07,06,16,47,23.10
2018,07,06,16,48,23.00
2018,07,06,16,49,23.00
2018,07,06,16,50,23.00
2018,07,06,16,51,22.90
2018,07,06,16,52,22.90
2018,07,06,16,53,22.80
2018,07,06,16,54,22.80
2018,07,06,16,55,22.60
2018,07,06,16,56,22.60
2018,07,06,16,57,22.50
2018,07,06,16,58,22.50
2018,07,06,16,59,22.40
2018,07,06,17,00,22.40
2018,07,06,17,01,22.40
2018,07,06,17,02,22.40
2018,07,06,17,03,22.30
2018,07,06,17,04,22.30
2018,07,06,17,05,22.30
2018,07,06,17,06,22.30
2018,07,06,17,07,22.20
2018,07,06,17,08,22.20
2018,07,06,17,09,22.20
2018,07,06,17,10,22.20
2018,07,06,17,11,22.20
2018,07,06,17,12,22.10
2018,07,06,17,13,22.10
2018,07,06,17,14,22.00
2018,07,06,17,15,22.00
2018,07,06,17,16,22.00
2018,07,06,17,17,21.90
2018,07,06,17,18,21.90
2018,07,06,17,19,22.00